Location: ????????
(55.0808°N, 38.5463°E)
Time: 02:38:29
(UTC+00:00)

Nimbus 3 Rocket - Pass Details

Date: 27 September 2024
Orbit: 1072 x 1131 km, 99.9° (Epoch: 03 October)

Event Time Altitude Azimuth Distance (km) Brightness Sun altitude
Rises 20:28:58 0° 21° (NNE) 3,901 8.8 -36.1°
Reaches altitude 10° 20:31:53 10° 31° (NNE) 2,933 7.9 -36.2°
Enters shadow 20:35:26 26° 59° (ENE) 2,000 6.7 -36.3°
